EHI
0 0 0 0 0 0 0 0 0 0 0 0 0 0 0 0 0 0 0 0 0 0 0 0 0 0 0 0 0 0 0 0 0 0 0 0 0 0 0 0 0 0 0 0
0 0 0 0 0 0 0 0 0 0 0 0 0 0 0 0 0 0 0 0 0 0 0 0 0 0 0 0 0 0 0 0 0 0 0 0 0 0 0 0 0 0 0 0
0 0 0 0 0 0 0 0 0 0 0 0 0 0 0 0 0 0 0 0 0 0 0 0 0 0 0 0 0 0 0 0 0 0 0 0 0 0 0 0 0 0 0 0
0 0 0 0 0 0 0 0 0 0 0 0 0 0 0 0 0 0 0 0 0 0 0 0 0 0 0 0 0 0 0 0 0 0 0 0 0 0 0 0 0 0 0 0
0 0 0 0 0 0 0 0 0 0 0 0 0 0 0 0 0 0 0 0 0 0 0 0 0 0 0 0 0 0 0 0 0 0 0 0 0 0 0 0 0 0 0 0
0 0 0 0 0 0 0 0 0 0 0 0 0 0 0 0 0 0 0 0 0 0 0 0 0 0 0 0 0 0 0 0 0 0 0 0 0 0 0 0 0 0 0 0
0 0 0 0 0 0 0 0 0 0 0 0 0 0 0 0 0 0 0 0 0 0 0 0 0 0 0 0 0 0 0 0 0 0 0 0 0 0 0 0 0 0 0 0
0 0 0 0 0 0 0 0 0 0 0 0 0 0 0 0 0 0 0 0 0 0 0 0 0 0 0 0 0 0 0 0 0 0 0 0 0 0 0 0 0 0 0 0
0 0 0 0 0 0 0 0 0 0 0 0 0 0 0 0 0 0 0 0 0 0 0 0 0 0 0 0 0 0 0 0 0 0 0 0 0 0 0 0 0 0 0 0
0 0 0 0 0 0 0 0 0 0 0 0 0 0 0 0 0 0 0 0 0 0 0 0 0 0 0 0 0 0 0 0 0 0 0 0 0 0 0 0 0 0 0 0
0 0 0 0 0 0 0 0 0 0 0 0 0 0 0 0 0 0 0 0 0 0 0 0 0 0 0 0 0 0 0 0 0 0 0 0 0 0 0 0 0 0 0 0
0 0 0 0 0 0 0 0 0 0 0 0 0 0 0 0 0 0 0 0 0 0 0 0 0 0 0 0 0 0 0 0 0 0 0 0 0 0 0 0 0 0 0 0
0 0 0 0 0 0 0 0 0 0 0 0 0 0 0 0 0 0 0 0 0 0 0 0 0 0 0 0 0 0 0 0 0 0 0 0 0 0 0 0 0 0 0 0
0 0 0 0 0 0 0 0 0 0 0 0 0 0 0 0 0 0 0 0 0 0 0 0 0 0 0 0 0 0 0 0 0 0 0 0 0 0 0 0 0 0 0 0
0 0 0 0 0 0 0 0 0 0 0 0 0 0 0 0 0 0 0 0 0 0 0 0 0 0 0 0 0 0 0 0 0 0 0 0 0 0 0 0 0 0 0 0
0 0 0 0 0 0 0 0 0 0 0 0 0 0 0 0 0 0 0 0 0 0 0 0 0 0 0 0 0 0 0 0 0 0 0 0 0 0 0 0 0 0 0 0
0 0 0 0 0 0 0 0 0 0 0 0 0 0 0 0 0 0 0 0 0 0 0 0 0 0 0 0 0 0 0 0 0 0 0 0 0 0 0 0 0 0 0 0
0 0 0 0 0 0 0 0 0 0 0 0 0 0 0 0 0 0 0 0 0 0 0 0 0 0 0 0 0 0 0 0 0 0 0 0 0 0 0 0 0 0 0 0
0 0 0 0 0 0 0 0 0 0 0 0 0 0 0 0 0 0 0 0 0 0 0 0 0 0 0 0 0 0 0 0 0 0 0 0 0 0 0 0 0 0 0 0
0 0 0 0 0 0 0 0 0 0 0 0 0 0 0 0 0 0 0 0 0 0 0 0 0 0 0 0 0 0 0 0 0 0 0 0 0 0 0 0 0 0 0 0
0 0 0 0 0 0 0 0 0 0 0 0 0 0 0 0 0 0 0 0 0 0 0 0 0 0 0 0 0 0 0 0 0 0 0 0 0 0 0 0 0 0 0 0
0 0 0 0 0 0 0 0 0 0 0 0 0 0 0 0 0 0 0 0 0 0 0 0 0 0 0 0 0 0 0 0 0 0 0 0 0 0 0 0 0 0 0 0
0 0 0 0 0 0 0 0 0 0 0 0 0 0 0 0 0 0 0 0 0 0 0 0 0 0 0 0 0 0 0 0 0 0 0 0 0 0 0 0 0 0 0 0
0 0 0 0 0 0 0 0 0 0 0 0 0 0 0 0 0 0 0 0 0 0 0 0 0 0 0 0 0 0 0 0 0 0 0 0 0 0 0 0 0 0 0 0
0 0 0 0 0 0 0 0 0 0 0 0 0 0 0 0 0 0 0 0 0 0 0 0 0 0 0 0 0 0 0 0 0 0 0 0 0 0 0 0 0 0 0 0
0 0 0 0 0 0 0 0 0 0 0 0 0 0 0 0 0 0 0 0 0 0 0 0 0 0 0 0 0 0 0 0 0 0 0 0 0 0 0 0 0 0 0 0
0 0 0 0 0 0 0 0 0 0 0 0 0 0 0 0 0 0 0 0 0 0 0 0 0 0 0 0 0 0 0 0 0 0 0 0 0 0 0 0 0 0 0 0
Wind_Speed
3 2 8 9 8 9 8 4 2 2 2 3 5 5 6 7 9 8 6 6 8 8 8 9 9 9 10 10 9 9 9 9 11 11 10 9 9 9 9 9 10 9 9 8
6 7 11 11 10 8 6 5 3 3 1 4 5 5 7 9 10 8 8 10 11 11 10 10 11 11 11 10 10 9 9 10 10 10 9 9 9 9 9 9 9 9 9 10
4 4 3 6 6 5 3 4 3 2 4 7 7 8 9 10 9 10 12 13 13 12 12 12 12 12 12 12 11 10 10 11 10 10 10 9 9 8 8 9 9 9 10 10
2 6 3 3 1 4 4 4 3 1 5 6 7 8 8 8 9 12 13 13 13 12 12 12 11 11 11 11 10 10 10 11 10 10 10 9 8 8 7 6 7 8 9 10
3 1 1 0 3 3 1 3 2 3 7 8 8 6 6 9 10 12 14 13 12 12 13 11 11 12 12 12 11 11 10 10 9 9 9 9 8 8 7 6 7 7 7 9
3 1 3 2 4 5 1 2 2 6 7 8 8 8 7 9 11 11 11 10 10 10 10 11 11 12 12 13 12 12 11 11 9 8 8 8 8 8 7 6 7 8 8 8
2 1 2 3 5 5 5 7 7 5 6 6 6 7 11 13 10 9 9 10 10 10 11 12 13 12 13 14 14 13 13 12 12 10 9 9 7 7 7 7 7 7 8 8
2 1 5 3 4 3 5 6 5 5 5 6 8 10 10 10 10 11 10 10 11 12 13 13 13 13 15 15 15 14 14 14 13 11 10 10 7 7 7 7 7 7 7 7
6 5 4 2 3 3 4 3 4 5 6 6 8 8 9 9 10 10 11 12 12 14 16 15 13 13 16 16 15 15 14 13 13 12 10 9 8 8 7 7 6 6 6 6
3 3 4 3 1 1 1 1 4 4 6 7 8 9 9 9 10 11 11 13 14 16 17 17 15 15 15 15 14 13 13 12 10 10 9 8 7 6 6 6 6 6 6 6
2 1 1 2 2 2 2 3 5 6 6 7 7 8 8 8 10 11 12 13 14 16 17 18 17 16 15 14 12 12 12 10 9 8 8 7 6 6 7 6 6 6 5 5
5 5 4 4 2 2 4 5 5 6 7 7 6 7 8 9 10 11 14 15 15 16 17 17 17 16 15 13 11 11 9 9 6 6 5 5 5 5 8 9 10 11 9 6
6 6 5 2 2 2 2 4 5 5 6 6 7 6 8 9 10 13 14 16 16 17 17 16 16 15 14 12 11 10 9 8 6 5 4 4 3 3 3 1 2 5 7 7
6 5 3 2 1 1 3 4 5 6 5 6 6 7 8 9 12 14 15 15 15 16 15 15 15 15 14 12 10 10 8 8 7 4 4 3 3 2 1 2 2 2 1 2
6 6 5 4 2 3 3 4 5 6 6 6 6 7 9 11 13 14 14 14 15 15 15 15 15 15 15 12 10 9 7 5 4 4 4 3 2 1 1 2 3 3 3 4
6 6 5 4 2 2 3 3 4 5 6 6 7 8 10 11 12 12 13 13 15 16 16 15 15 16 15 12 9 7 6 11 7 4 3 3 2 2 2 3 4 4 4 4
7 4 4 2 1 1 1 2 3 4 5 6 7 9 10 11 13 14 15 15 14 14 13 14 16 17 15 11 8 6 5 6 9 4 3 3 2 2 2 2 3 3 3 4
7 7 7 5 4 1 1 3 3 4 5 6 8 8 9 10 12 13 15 15 15 15 14 16 17 18 14 11 7 5 4 3 3 3 3 3 3 2 2 2 4 4 3 3
7 8 7 6 5 3 0 2 3 4 5 6 7 8 8 9 10 11 12 13 14 16 18 19 23 17 14 12 11 4 4 3 2 2 2 3 3 2 2 3 4 4 4 4
7 8 7 6 4 3 0 2 3 4 5 5 6 7 9 10 10 11 12 10 8 10 16 19 18 14 14 12 12 4 3 2 2 1 1 2 2 2 3 3 3 3 3 3
8 8 7 6 3 2 1 2 3 4 5 5 6 7 8 9 9 9 10 11 13 15 18 18 14 13 13 12 10 4 3 2 1 1 0 1 1 2 2 3 3 3 2 3
8 7 7 6 4 2 2 2 2 3 4 5 6 7 7 8 9 8 7 7 11 17 15 11 12 18 20 15 7 5 4 2 1 0 0 1 1 2 2 2 2 2 2 3
7 7 7 6 5 3 2 1 1 2 3 4 5 6 6 6 6 8 10 10 11 17 14 11 19 25 21 11 9 8 7 5 2 1 0 1 1 2 2 2 2 2 2 3
7 7 7 6 5 3 1 2 1 1 1 2 4 5 5 5 5 5 6 11 15 16 11 13 20 23 17 10 10 9 9 8 5 3 1 0 1 2 2 2 2 2 2 3
8 7 6 5 4 3 3 2 1 1 2 2 4 5 4 3 5 7 8 10 14 14 11 14 19 19 13 11 11 10 9 9 8 6 3 2 1 1 2 2 3 3 3 3
7 6 6 6 5 4 4 3 1 1 1 2 3 3 4 4 6 6 7 9 12 13 11 10 12 13 11 11 11 11 10 11 11 9 7 5 3 2 1 2 3 3 3 3
7 5 4 4 4 5 4 3 2 2 1 1 2 3 4 5 6 7 8 8 9 10 9 9 9 10 10 11 11 11 10 10 10 10 9 7 6 4 3 2 2 2 2 3
Wind_Direction
295 58 85 75 61 63 71 75 87 328 96 353 335 325 314 310 310 313 311 302 293 280 271 266 263 258 254 251 250 248 244 242 241 243 243 245 248 249 249 248 248 246 248 251
10 82 96 70 45 46 48 38 18 42 85 302 305 314 318 317 317 311 302 301 297 290 282 275 269 265 260 256 253 245 236 234 233 233 235 237 241 245 248 249 249 246 244 246
334 319 75 33 28 51 31 29 66 49 302 305 318 318 309 308 308 301 304 304 300 293 285 282 280 275 270 264 257 246 240 237 231 225 224 227 232 235 238 245 248 248 247 244
7 25 30 242 96 77 93 97 69 359 297 300 298 294 288 294 298 302 302 302 299 297 295 293 291 291 287 282 273 262 255 248 238 227 224 222 221 224 230 233 238 243 245 242
77 20 204 312 11 357 296 174 57 352 326 318 306 305 287 279 290 295 298 302 306 308 309 311 312 313 311 306 298 291 283 270 256 242 232 221 218 221 224 230 238 240 240 237
75 15 258 259 319 310 342 261 339 352 328 317 334 332 299 298 302 302 306 310 315 318 319 320 319 321 319 313 308 301 298 291 278 261 245 231 223 224 225 226 235 241 243 235
60 311 276 296 321 37 59 277 297 311 314 317 313 281 291 309 313 313 313 315 318 319 318 314 311 311 307 304 301 299 298 296 290 277 261 247 236 233 234 234 235 237 240 237
90 5 274 322 49 74 242 256 288 301 303 301 293 292 301 310 314 318 320 318 319 320 317 313 311 309 305 301 298 296 293 290 285 279 271 269 249 241 238 236 236 236 234 236
176 205 217 125 142 201 216 269 291 295 300 304 310 309 315 315 319 320 318 319 323 321 318 316 312 308 304 302 300 297 293 288 285 280 271 262 254 249 247 236 232 230 223 224
113 152 167 148 139 32 37 328 312 311 312 322 319 317 321 320 321 322 322 324 325 324 323 322 319 314 306 304 304 300 296 292 287 281 274 266 256 248 244 236 227 222 217 217
144 177 160 347 354 22 27 2 344 331 323 326 327 324 322 323 322 324 325 325 325 325 323 321 319 317 314 313 311 307 302 298 293 283 275 270 260 249 242 235 221 210 207 197
207 218 186 253 292 58 33 353 335 334 331 330 332 323 325 324 322 325 326 327 326 325 322 320 319 318 317 316 313 310 308 306 300 293 284 275 271 272 249 237 232 223 211 192
167 176 175 195 87 53 22 348 338 338 333 331 327 322 325 322 322 326 326 328 326 323 320 319 320 320 319 319 318 315 310 310 307 302 295 290 282 276 284 289 217 207 200 195
159 149 140 138 143 35 17 349 345 339 333 327 321 322 324 321 324 327 327 325 323 321 320 322 323 322 322 321 320 318 315 316 318 307 302 297 291 281 232 150 115 81 89 148
162 150 156 147 99 36 9 353 349 334 327 326 323 324 324 326 325 324 323 324 325 324 325 326 325 324 325 323 322 321 320 314 313 315 315 311 313 329 104 126 122 116 99 80
152 133 124 112 81 25 359 353 338 324 323 322 322 320 320 321 319 320 325 330 330 327 326 328 328 326 324 322 323 324 323 333 343 335 338 350 13 55 81 108 119 124 129 131
148 157 150 145 134 36 346 329 322 317 316 318 314 314 319 324 327 331 333 332 326 321 323 330 330 327 325 322 323 322 327 337 353 354 357 6 34 66 94 112 123 128 138 154
160 167 165 158 158 145 347 337 327 318 308 306 311 317 323 326 327 327 328 328 329 332 336 335 331 327 324 326 325 319 324 331 342 351 4 20 36 56 90 108 123 127 126 138
151 150 146 140 138 132 123 309 304 302 304 310 317 318 315 315 317 322 327 332 337 339 336 332 327 328 328 329 332 316 319 324 334 348 5 28 39 49 79 100 109 120 127 129
150 147 143 137 129 126 174 290 302 304 303 310 319 322 323 327 329 330 330 329 330 330 327 327 329 332 334 331 333 320 316 319 330 334 8 35 44 51 72 93 104 112 121 125
155 153 148 143 140 142 254 296 302 301 305 318 324 320 317 319 325 330 334 335 336 337 334 330 334 338 337 332 328 328 329 327 339 360 40 87 97 94 92 97 107 115 121 122
163 160 157 155 160 199 262 276 285 305 321 328 328 325 327 330 333 334 329 324 326 333 334 333 338 337 338 339 348 348 349 351 353 21 102 137 136 138 138 134 132 128 122 121
170 169 165 169 179 202 248 267 299 322 333 334 333 330 329 326 331 339 338 336 335 334 335 335 336 338 344 354 0 1 2 1 358 357 14 149 156 163 161 159 155 147 141 140
175 174 175 179 172 169 206 247 281 324 357 344 334 332 333 334 334 335 325 328 335 336 338 336 339 345 353 2 4 5 6 3 359 355 2 49 128 145 153 155 157 161 164 167
178 174 173 172 178 189 190 181 100 33 29 350 337 342 344 348 339 335 337 339 341 343 342 343 346 350 1 4 4 4 4 2 0 1 3 10 55 122 145 154 162 167 173 179
179 181 183 185 179 169 163 151 134 117 75 358 343 345 349 347 343 343 343 343 345 345 348 349 351 356 2 3 3 4 5 2 3 4 3 5 13 49 103 127 143 153 164 174
187 184 171 158 151 151 150 148 144 145 139 87 24 356 356 351 350 350 351 351 352 352 352 353 355 359 2 4 4 5 6 7 4 0 1 3 7 15 29 68 96 114 131 142